Location: Unspecified
(52.4292°N, 19.3359°E)
Time: 00:34:25
(UTC+02:00)

A-11 Canister half - Pass Details

Date: 28 May 2024
Orbit: 1515 x 1685 km, 47.2° (Epoch: 19 June)

Event Time Altitude Azimuth Distance (km) Brightness Sun altitude
Rises 00:50:47 0° 211° (SSW) 4,814 - -16.0°
Reaches altitude 10° 00:54:18 10° 203° (SSW) 3,806 - -16.0°
Exits shadow 00:57:27 21° 190° (S) 3,012 9.9 -16.0°
Maximum altitude 01:02:33 34° 143° (SE) 2,368 9.6 -15.9°
Drops below altitude 10° 01:10:36 10° 84° (E) 3,711 11.2 -15.8°
Sets 01:13:57 0° 75° (ENE) 4,680 11.9 -15.7°
